Regional Weather Roundup
Issued by NWS Charleston, SC

Current Version | Previous Version | Text Only | Print | Product List | Glossary Off
Versions: 1 2 3 4 5 6 7 8 9 10 11 12 13 14 15 16 17 18 19 20 21 22 23 24 25 26 27 28 29 30 31 32 33 34 35 36 37 38 39 40 41 42 43 44 45 46 47 48 49 50

000
ASUS42 KCHS 270627
RWRCHS

REGIONAL WEATHER ROUNDUP
NATIONAL WEATHER SERVICE CHARLESTON SC
200 AM EDT SAT MAY 27 2017

NOTE: "FAIR" INDICATES FEW OR NO CLOUDS BELOW 12,000 FEET WITH NO
SIGNIFICANT WEATHER AND/OR OBSTRUCTIONS TO VISIBILITY.

NOT ALL STATIONS ARE QUALITY CONTROLLED. USE DATA WITH CAUTION...
ESPECIALLY DEWPOINT OBSERVATIONS.

SCZ027-030-031-034>040-042>050-270700-
...SOUTHEAST SOUTH CAROLINA...

CITY           SKY/WX    TMP DP  RH WIND       PRES   REMARKS
N CHARLESTON   CLEAR     68  59  73 SW6       30.01S
6HR MIN TEMP:  66; 6HR MAX TEMP:  77;

WATERFRONT PRK   N/A     72  65  78 VRB2      30.00S
JOHNS ISLAND   FAIR      70  64  83 CALM      30.01S
PINOPOLIS        N/A     72  61  68 SW7       29.92S
MONCKS CORNER  FAIR      61  57  88 CALM      30.01S
SUMMERVILLE    FAIR      61  59  94 CALM      30.02S
BEAUFORT MCAS  CLEAR     68  61  78 CALM      30.01F
6HR MIN TEMP:  67; 6HR MAX TEMP:  79;

BEAUFORT ARPT  FAIR      68  64  88 CALM      30.01F
HILTON HEAD IS CLEAR     68  63  83 SW5       30.02F
WALTERBORO     CLEAR     61  57  88 CALM      30.02S
ALLENDALE      FAIR      64  61  88 CALM      30.00F

...SOUTHERN MIDLANDS AND PEE DEE...

CITY           SKY/WX    TMP DP  RH WIND       PRES   REMARKS
GEORGETOWN     FAIR      61  59  94 W3        30.01F
KINGSTREE      FAIR      59  57  94 CALM      30.00S
ORANGEBURG     CLEAR     63  61  93 S3        30.00F
6HR MIN TEMP:  63; 6HR MAX TEMP:  79; 6HR PCP: TRACE;

BARNWELL       FAIR      64  63  94 CALM      30.02S
AIKEN          FAIR      63  59  88 CALM      30.05S
MANNING        FAIR      61  61 100 W18       30.00S
COLUMBIA       CLEAR     67  59  75 SW3       29.99F
6HR MIN TEMP:  65; 6HR MAX TEMP:  80;

SUMTER         CLEAR     65  59  82 CALM      29.97S
6HR MIN TEMP:  64; 6HR MAX TEMP:  77;

FLORENCE       PTCLDY    64  59  83 CALM      29.99S
6HR MIN TEMP:  62; 6HR MAX TEMP:  79;

MYRTLE BEACH   NOT AVBL
N MYRTLE BEACH CLEAR     69  58  67 W6        29.99S
6HR MIN TEMP:  65; 6HR MAX TEMP:  77;


$$

GAZ063-065-086>088-099>101-113>116-118-119-134>141-150-270700-
...SOUTHEAST GEORGIA...

CITY           SKY/WX    TMP DP  RH WIND       PRES   REMARKS
SAVANNAH ARPT  CLEAR     68  57  68 CALM      30.02F
6HR MIN TEMP:  67; 6HR MAX TEMP:  80;

HUNTER AAF     CLEAR     66  63  87 CALM      29.99F
6HR MIN TEMP:  66; 6HR MAX TEMP:  79;

FORT STEWART   CLEAR     62  58  86 CALM      30.00F
6HR MIN TEMP:  62; 6HR MAX TEMP:  80;

STATESBORO     CLEAR     63  63 100 CALM      30.02S
SYLVANIA       CLEAR     64  64  97 CALM      30.03S
CLAXTON        FAIR     N/A N/A N/A CALM      30.02S

...CSRA...CENTRAL AND FAR SOUTHEAST GEORGIA...

CITY           SKY/WX    TMP DP  RH WIND       PRES   REMARKS
THOMSON        CLEAR     64  61  92 CALM      30.07S FOG
AUGUSTA-BUSH   CLEAR     64  62  93 CALM      30.01S
6HR MIN TEMP:  64; 6HR MAX TEMP:  82;

AUGUSTA-DANIEL PTCLDY    73  58  59 CALM      30.02S
SWAINSBORO     FAIR      63  63 100 CALM      30.03S
VIDALIA        CLEAR     66  63  88 CALM      30.02F
EASTMAN        FAIR      63  63 100 CALM      30.05R
HAZLEHURST     FAIR      67  64  89 CALM      30.01F
ALMA           CLEAR     62  60  93 CALM      30.02F
6HR MIN TEMP:  61; 6HR MAX TEMP:  83;

WAYCROSS       CLEAR     66  64  94 SW5       30.03F
JESUP          FAIR      61  57  88 CALM      30.02F
BAXLEY         FAIR      63  63 100 CALM      30.02F
BRUNSWICK      FOG       64  64 100 CALM      30.04S VSB 1/2
SAINT SIMONS   CLEAR     71  68  90 SW5       30.03F
6HR MIN TEMP:  70; 6HR MAX TEMP:  77;


$$

SCZ027-028-034-036>038-045-046-048>050-GAZ119-141-270700-
...LAKE AND SUPPLEMENTAL COASTAL OBSERVATIONS...

STATION/POSITION TIME  TEMP    WIND        PRES    WAVE   SWELL
                       AIR SEA DIR/SP/G            HT/PER HT/PER/DIR
                 (UTC) (F)     (DEG/KT/KT) (MB)    (FT/S) (FT/S/D)
WINYAH BAY       0530   69     280/  5     1016.0S
LAKE MURRAY      0530   73     260/  6/  8 1015.2S
ACE BASIN NERRS  0530   67        CALM     1017.0S
FORT PULASKI     0600   72     220/  3/  4 1016.6
SAPELO ISLAND    0600   70        CALM     1017.0

$$

ANZ835-935-AMZ111-154-330-350-352-354-370-450-454-472-270700-
...C-MAN AND BUOY OBSERVATIONS...

STATION/POSITION TIME  TEMP    WIND        PRES    WAVE   SWELL
                       AIR SEA DIR/SP/G            HT/PER HT/PER/DIR
                 (UTC) (F)     (DEG/KT/KT) (MB)    (FT/S) (FT/S/D)
BUOY 41004       0610   74 74  230/ 14/ 16 1016.0
BUOY 41008       0550   76 77  200/ 12/ 14 1016.8F   2/ 4   2/100/ 8
FOLLY BEACH CMAN 0600   74     230/  6/  8 1016.7F
CAPERS NEARSHORE 0608   80 76  240/ 10/ 12 1016.0S
FRIPP NEARSHORE  0608   77 77  250/  8/ 10 1015.9F


STATION/POSITION TIME  TEMP    WIND        PRES    WAVE   SWELL
                       AIR SEA DIR/SP/G            HT/PER HT/PER/DIR
                 (UTC) (F)     (DEG/KT/KT) (MB)    (FT/S) (FT/S/D)
5E ST. MARYS GA  0600      78                N/A     2/ 4
FRYING PAN BUOY  0610   74 74  240/ 14/ 16 1015.5
BUOY 41025       0550   75 78  260/ 12/ 14 1014.2F   5/ 7   3/220/ 7
CAPE LOOKOUT NC  0600   72     250/  6/  7 1014.5F
BUOY 41002       0550   76 77  250/ 12/ 14 1016.8F   5/ 6   3/250/ 6
BUOY 41010       0610   77 79  170/  2/  2 1017.3
ST AUGUSTINE FL  0600   69 77  200/  7/  9 1018.3F


$$




USA.gov is the U.S. government's official web portal to all federal, state and local government web resources and services.